This demonstration page uses our WeatherBlox Daily Observations layout. Learn more.

Left ArrowRight Arrow

Hourly Observations for July 3, 2015

Temp ( °F °C ) Dew Point ( °F °C ) Humidity (%) Winds ( mph kmh ) Pressure ( in mb ) Visibility ( mi km ) Precip ( " mm )
12:53 am 00:53 Cloudy 70 21.1 64 17.8 82 82 E 8 13 29.91 1013 10 16 N/A
1:53 am 01:53 Mostly Cloudy 69 20.6 63 17.2 81 81 ENE 7 11 29.91 1013 10 16 N/A
2:53 am 02:53 Cloudy 68 20 62 16.7 81 81 ENE 6 9 29.91 1013 10 16 N/A
3:53 am 03:53 Cloudy 67 19.4 61 16.1 81 81 ENE 9 15 29.89 1012 10 16 N/A
4:53 am 04:53 Cloudy 66 18.9 61 16.1 84 84 NE 5 7 29.89 1012 10 16 N/A
5:53 am 05:53 Cloudy 66 18.9 61 16.1 84 84 ENE 6 9 29.90 1012 10 16 N/A
6:53 am 06:53 Cloudy 66 18.9 60 15.6 81 81 ENE 5 7 29.91 1013 10 16 N/A
7:53 am 07:53 Cloudy 67 19.4 60 15.6 79 79 ENE 6 9 29.91 1013 10 16 N/A
8:53 am 08:53 Cloudy 68 20 61 16.1 78 78 E 8 13 29.90 1012 10 16 N/A
9:53 am 09:53 Cloudy 69 20.6 62 16.7 78 78 ENE 6 9 29.90 1013 10 16 N/A
10:53 am 10:53 Cloudy 71 21.7 63 17.2 76 76 NE 8 13 29.89 1012 10 16 N/A
11:53 am 11:53 Cloudy 72 22.2 63 17.2 73 73 NE 8 13 29.90 1013 10 16 N/A
12:53 pm 12:53 Cloudy 72 22.2 64 17.8 76 76 ENE 5 7 29.90 1013 7 11 N/A
1:53 pm 13:53 Cloudy 75 23.9 65 18.3 71 71 NE 7 11 29.89 1012 10 16 N/A
2:30 pm 14:30 Cloudy 75 23.9 65 18.3 71 71 E 12 19 29.88 1012 10 16 N/A
2:53 pm 14:53 Cloudy 75 23.9 65 18.3 71 71 E 10 17 29.88 1012 10 16 N/A
3:01 pm 15:01 Cloudy 74 23.3 65 18.3 74 74 ENE 10 17 29.88 1012 10 16 N/A
3:53 pm 15:53 Cloudy 73 22.8 65 18.3 76 76 ENE 8 13 29.88 1012 10 16 N/A
4:00 pm 16:00 Cloudy 74 23.3 66 18.9 76 76 ENE 8 13 29.88 1012 10 16 N/A
4:25 pm 16:25 Cloudy 73 22.8 64 17.8 74 74 E 12 19 29.88 1012 10 16 N/A
4:53 pm 16:53 Cloudy 72 22.2 63 17.2 73 73 ENE 10 17 29.88 1012 9 14 N/A
5:53 pm 17:53 Cloudy 72 22.2 63 17.2 73 73 NE 7 11 29.87 1012 9 14 N/A
6:53 pm 18:53 Cloudy with Light Rain 69 20.6 66 18.9 90 90 NNW 7 11 29.87 1011 6 10 N/A
7:53 pm 19:53 Cloudy with Light Rain 71 21.7 65 18.3 81 81 ENE 5 7 29.87 1012 9 14 N/A
8:53 pm 20:53 Mostly Sunny 69 20.6 64 17.8 84 84 NNE 5 7 29.88 1012 8 13 N/A
9:53 pm 21:53 Partly Cloudy 67 19.4 64 17.8 91 91 NNE 3 6 29.88 1012 7 11 N/A
10:53 pm 22:53 Mostly Cloudy with Mist and Fog 65 18.3 64 17.8 97 97 N N/A 29.90 1013 6 10 N/A
11:53 pm 23:53 Mostly Cloudy with Mist and Fog 66 18.9 64 17.8 93 93 N N/A 29.91 1013 5 8 N/A

Powered by AerisWeather